Year,Month,Day,Hour,Minute,Value (Times are PST for temperature in C)
2015,06,30,00,00,18.20
2015,06,30,00,01,18.30
2015,06,30,00,02,18.30
2015,06,30,00,03,18.30
2015,06,30,00,04,18.30
2015,06,30,00,05,18.20
2015,06,30,00,06,18.20
2015,06,30,00,07,18.20
2015,06,30,00,08,18.20
2015,06,30,00,09,18.20
2015,06,30,00,10,18.20
2015,06,30,00,11,18.20
2015,06,30,00,12,18.20
2015,06,30,00,13,18.20
2015,06,30,00,14,18.20
2015,06,30,00,15,18.20
2015,06,30,00,16,18.20
2015,06,30,00,17,18.20
2015,06,30,00,18,18.20
2015,06,30,00,19,18.20
2015,06,30,00,20,18.20
2015,06,30,00,21,18.20
2015,06,30,00,22,18.20
2015,06,30,00,23,18.20
2015,06,30,00,24,18.20
2015,06,30,00,25,18.20
2015,06,30,00,26,18.20
2015,06,30,00,27,18.20
2015,06,30,00,28,18.30
2015,06,30,00,29,18.30
2015,06,30,00,30,18.30
2015,06,30,00,31,18.30
2015,06,30,00,32,18.30
2015,06,30,00,33,18.30
2015,06,30,00,34,18.30
2015,06,30,00,35,18.30
2015,06,30,00,36,18.30
2015,06,30,00,37,18.30
2015,06,30,00,38,18.30
2015,06,30,00,39,18.30
2015,06,30,00,40,18.30
2015,06,30,00,41,18.30
2015,06,30,00,42,18.30
2015,06,30,00,43,18.30
2015,06,30,00,44,18.30
2015,06,30,00,45,18.30
2015,06,30,00,46,18.30
2015,06,30,00,47,18.30
2015,06,30,00,48,18.30
2015,06,30,00,49,18.40
2015,06,30,00,50,18.40
2015,06,30,00,51,18.40
2015,06,30,00,52,18.40
2015,06,30,00,53,18.40
2015,06,30,00,54,18.40
2015,06,30,00,55,18.40
2015,06,30,00,56,18.40
2015,06,30,00,57,18.40
2015,06,30,00,58,18.50
2015,06,30,00,59,18.50
2015,06,30,01,00,18.50
2015,06,30,01,01,18.50
2015,06,30,01,02,18.50
2015,06,30,01,03,18.50
2015,06,30,01,04,18.40
2015,06,30,01,05,18.40
2015,06,30,01,06,18.30
2015,06,30,01,07,18.30
2015,06,30,01,08,18.30
2015,06,30,01,09,18.30
2015,06,30,01,10,18.30
2015,06,30,01,11,18.30
2015,06,30,01,12,18.30
2015,06,30,01,13,18.30
2015,06,30,01,14,18.30
2015,06,30,01,15,18.30
2015,06,30,01,16,18.30
2015,06,30,01,17,18.30
2015,06,30,01,18,18.30
2015,06,30,01,19,18.30
2015,06,30,01,20,18.30
2015,06,30,01,21,18.30
2015,06,30,01,22,18.40
2015,06,30,01,23,18.40
2015,06,30,01,24,18.40
2015,06,30,01,25,18.40
2015,06,30,01,26,18.40
2015,06,30,01,27,18.40
2015,06,30,01,28,18.40
2015,06,30,01,29,18.40
2015,06,30,01,30,18.40
2015,06,30,01,31,18.40
2015,06,30,01,32,18.40
2015,06,30,01,33,18.50
2015,06,30,01,34,18.40
2015,06,30,01,35,18.40
2015,06,30,01,36,18.40
2015,06,30,01,37,18.40
2015,06,30,01,38,18.40
2015,06,30,01,39,18.40
2015,06,30,01,40,18.40
2015,06,30,01,41,18.40
2015,06,30,01,42,18.50
2015,06,30,01,43,18.50
2015,06,30,01,44,18.50
2015,06,30,01,45,18.60
2015,06,30,01,46,18.60
2015,06,30,01,47,18.60
2015,06,30,01,48,18.70
2015,06,30,01,49,18.70
2015,06,30,01,50,18.70
2015,06,30,01,51,18.70
2015,06,30,01,52,18.70
2015,06,30,01,53,18.70
2015,06,30,01,54,18.60
2015,06,30,01,55,18.60
2015,06,30,01,56,18.60
2015,06,30,01,57,18.60
2015,06,30,01,58,18.60
2015,06,30,01,59,18.50
2015,06,30,02,00,18.50
2015,06,30,02,01,18.50
2015,06,30,02,02,18.50
2015,06,30,02,03,18.40
2015,06,30,02,04,18.40
2015,06,30,02,05,18.40
2015,06,30,02,06,18.40
2015,06,30,02,07,18.40
2015,06,30,02,08,18.40
2015,06,30,02,09,18.30
2015,06,30,02,10,18.30
2015,06,30,02,11,18.30
2015,06,30,02,12,18.30
2015,06,30,02,13,18.30
2015,06,30,02,14,18.30
2015,06,30,02,15,18.20
2015,06,30,02,16,18.20
2015,06,30,02,17,18.20
2015,06,30,02,18,18.10
2015,06,30,02,19,18.10
2015,06,30,02,20,18.00
2015,06,30,02,21,17.90
2015,06,30,02,22,17.90
2015,06,30,02,23,17.80
2015,06,30,02,24,17.80
2015,06,30,02,25,17.80
2015,06,30,02,26,17.80
2015,06,30,02,27,17.70
2015,06,30,02,28,17.70
2015,06,30,02,29,17.70
2015,06,30,02,30,17.70
2015,06,30,02,31,17.70
2015,06,30,02,32,17.70
2015,06,30,02,33,17.70
2015,06,30,02,34,17.70
2015,06,30,02,35,17.70
2015,06,30,02,36,17.70
2015,06,30,02,37,17.80
2015,06,30,02,38,17.80
2015,06,30,02,39,17.80
2015,06,30,02,40,17.80
2015,06,30,02,41,17.80
2015,06,30,02,42,17.80
2015,06,30,02,43,17.80
2015,06,30,02,44,17.80
2015,06,30,02,45,17.80
2015,06,30,02,46,17.80
2015,06,30,02,47,17.80
2015,06,30,02,48,17.80
2015,06,30,02,49,17.70
2015,06,30,02,50,17.70
2015,06,30,02,51,17.70
2015,06,30,02,52,17.70
2015,06,30,02,53,17.70
2015,06,30,02,54,17.70
2015,06,30,02,55,17.70
2015,06,30,02,56,17.80
2015,06,30,02,57,17.70
2015,06,30,02,58,17.70
2015,06,30,02,59,17.70
2015,06,30,03,00,17.70
2015,06,30,03,01,17.70
2015,06,30,03,02,17.70
2015,06,30,03,06,17.60
2015,06,30,03,07,17.60
2015,06,30,03,08,17.60
2015,06,30,03,09,17.60
2015,06,30,03,10,17.60
2015,06,30,03,11,17.60
2015,06,30,03,12,17.60
2015,06,30,03,13,17.60
2015,06,30,03,14,17.60
2015,06,30,03,15,17.60
2015,06,30,03,16,17.50
2015,06,30,03,17,17.50
2015,06,30,03,18,17.50
2015,06,30,03,19,17.50
2015,06,30,03,20,17.50
2015,06,30,03,21,17.50
2015,06,30,03,22,17.50
2015,06,30,03,23,17.40
2015,06,30,03,24,17.40
2015,06,30,03,25,17.40
2015,06,30,03,26,17.40
2015,06,30,03,27,17.40
2015,06,30,03,28,17.40
2015,06,30,03,29,17.40
2015,06,30,03,30,17.30
2015,06,30,03,31,17.30
2015,06,30,03,32,17.30
2015,06,30,03,33,17.30
2015,06,30,03,34,17.30
2015,06,30,03,35,17.30
2015,06,30,03,36,17.30
2015,06,30,03,37,17.30
2015,06,30,03,38,17.30
2015,06,30,03,39,17.30
2015,06,30,03,40,17.30
2015,06,30,03,41,17.30
2015,06,30,03,42,17.30
2015,06,30,03,43,17.20
2015,06,30,03,44,17.20
2015,06,30,03,45,17.20
2015,06,30,03,46,17.20
2015,06,30,03,47,17.20
2015,06,30,03,48,17.20
2015,06,30,03,49,17.20
2015,06,30,03,50,17.20
2015,06,30,03,51,17.20
2015,06,30,03,52,17.20
2015,06,30,03,53,17.20
2015,06,30,03,54,17.20
2015,06,30,03,55,17.20
2015,06,30,06,09,16.10
2015,06,30,06,10,16.10
2015,06,30,06,11,16.10
2015,06,30,06,12,16.10
2015,06,30,06,13,16.10
2015,06,30,06,14,16.20
2015,06,30,06,15,16.20
2015,06,30,06,16,16.20
2015,06,30,06,17,16.30
2015,06,30,06,18,16.30
2015,06,30,06,19,16.40
2015,06,30,06,20,16.40
2015,06,30,06,21,16.50
2015,06,30,06,22,16.60
2015,06,30,06,23,16.70
2015,06,30,06,24,16.80
2015,06,30,06,25,17.00
2015,06,30,06,26,17.10
2015,06,30,06,27,17.20
2015,06,30,06,28,17.30
2015,06,30,06,29,17.40
2015,06,30,06,30,17.50
2015,06,30,06,31,17.70
2015,06,30,06,32,17.80
2015,06,30,06,33,18.00
2015,06,30,06,34,18.10
2015,06,30,06,35,18.30
2015,06,30,06,36,18.40
2015,06,30,06,37,18.50
2015,06,30,06,38,18.60
2015,06,30,06,39,18.60
2015,06,30,06,40,18.70
2015,06,30,06,41,18.70
2015,06,30,06,42,18.80
2015,06,30,06,43,18.80
2015,06,30,06,44,18.90
2015,06,30,06,45,18.90
2015,06,30,06,46,18.90
2015,06,30,06,47,18.90
2015,06,30,06,48,18.90
2015,06,30,06,49,18.90
2015,06,30,06,50,18.80
2015,06,30,06,51,18.80
2015,06,30,06,52,18.70
2015,06,30,06,53,18.60
2015,06,30,06,54,18.60
2015,06,30,06,55,18.60
2015,06,30,06,56,18.60
2015,06,30,06,57,18.60
2015,06,30,06,58,18.60
2015,06,30,06,59,18.60
2015,06,30,07,00,18.60
2015,06,30,07,01,18.70
2015,06,30,07,02,18.70
2015,06,30,07,03,18.70
2015,06,30,07,04,18.80
2015,06,30,07,05,18.80
2015,06,30,07,06,18.80
2015,06,30,07,07,18.80
2015,06,30,07,08,18.80
2015,06,30,07,09,18.80
2015,06,30,07,10,18.80
2015,06,30,07,11,18.80
2015,06,30,07,12,18.90
2015,06,30,07,13,19.00
2015,06,30,07,14,19.00
2015,06,30,07,15,19.10
2015,06,30,07,16,19.20
2015,06,30,07,17,19.20
2015,06,30,07,18,19.30
2015,06,30,07,19,19.30
2015,06,30,07,20,19.40
2015,06,30,07,21,19.40
2015,06,30,07,22,19.50
2015,06,30,07,23,19.50
2015,06,30,07,24,19.60
2015,06,30,07,25,19.60
2015,06,30,07,26,19.70
2015,06,30,07,27,19.80
2015,06,30,07,28,19.80
2015,06,30,07,29,19.90
2015,06,30,07,30,19.90
2015,06,30,07,31,20.00
2015,06,30,07,32,20.10
2015,06,30,07,33,20.10
2015,06,30,07,34,20.10
2015,06,30,07,35,20.10
2015,06,30,07,36,20.20
2015,06,30,07,37,20.20
2015,06,30,07,38,20.30
2015,06,30,07,39,20.30
2015,06,30,07,40,20.40
2015,06,30,07,41,20.50
2015,06,30,07,42,20.50
2015,06,30,07,43,20.60
2015,06,30,07,44,20.70
2015,06,30,07,45,20.70
2015,06,30,07,46,20.80
2015,06,30,07,47,20.90
2015,06,30,07,48,20.90
2015,06,30,07,49,21.00
2015,06,30,07,50,21.00
2015,06,30,07,51,21.00
2015,06,30,07,52,21.10
2015,06,30,07,53,21.10
2015,06,30,07,54,21.10
2015,06,30,07,55,21.10
2015,06,30,07,56,21.10
2015,06,30,07,57,21.20
2015,06,30,07,58,21.10
2015,06,30,07,59,21.00
2015,06,30,08,00,20.90
2015,06,30,08,01,20.90
2015,06,30,08,02,20.80
2015,06,30,08,03,20.80
2015,06,30,08,04,20.80
2015,06,30,08,05,20.90
2015,06,30,08,06,20.90
2015,06,30,08,07,21.00
2015,06,30,08,08,21.00
2015,06,30,08,09,21.10
2015,06,30,08,10,21.10
2015,06,30,08,11,21.20
2015,06,30,08,12,21.30
2015,06,30,08,13,21.30
2015,06,30,08,14,21.30
2015,06,30,08,15,21.20
2015,06,30,08,16,21.20
2015,06,30,08,17,21.20
2015,06,30,08,18,21.10
2015,06,30,08,19,21.10
2015,06,30,08,20,21.00
2015,06,30,08,21,20.90
2015,06,30,08,22,20.90
2015,06,30,08,23,20.90
2015,06,30,08,24,20.90
2015,06,30,08,25,20.80
2015,06,30,08,26,20.90
2015,06,30,08,27,20.90
2015,06,30,08,28,20.90
2015,06,30,08,29,20.90
2015,06,30,08,30,20.90
2015,06,30,08,31,20.90
2015,06,30,08,32,21.00
2015,06,30,08,33,21.00
2015,06,30,08,34,20.90
2015,06,30,08,35,20.90
2015,06,30,08,36,20.80
2015,06,30,08,37,20.90
2015,06,30,08,38,20.90
2015,06,30,08,39,21.00
2015,06,30,08,40,21.20
2015,06,30,08,41,21.30
2015,06,30,08,42,21.40
2015,06,30,08,43,21.50
2015,06,30,08,44,21.50
2015,06,30,08,45,21.60
2015,06,30,08,46,21.70
2015,06,30,08,47,21.80
2015,06,30,08,48,21.80
2015,06,30,08,49,21.70
2015,06,30,08,50,21.70
2015,06,30,08,51,21.60
2015,06,30,08,52,21.50
2015,06,30,08,53,21.40
2015,06,30,08,54,21.40
2015,06,30,08,55,21.30
2015,06,30,08,56,21.30
2015,06,30,08,57,21.30
2015,06,30,08,58,21.30
2015,06,30,08,59,21.30
2015,06,30,09,00,21.30
2015,06,30,09,01,21.30
2015,06,30,09,02,21.40
2015,06,30,09,03,21.40
2015,06,30,09,04,21.40
2015,06,30,09,05,21.40
2015,06,30,09,06,21.30
2015,06,30,09,07,21.30
2015,06,30,09,08,21.30
2015,06,30,09,09,21.30
2015,06,30,09,10,21.30
2015,06,30,09,11,21.30
2015,06,30,09,12,21.40
2015,06,30,09,13,21.50
2015,06,30,09,14,21.60
2015,06,30,09,15,21.50
2015,06,30,09,16,21.40
2015,06,30,09,17,21.40
2015,06,30,09,18,21.30
2015,06,30,09,19,21.30
2015,06,30,09,20,21.30
2015,06,30,09,21,21.30
2015,06,30,09,22,21.40
2015,06,30,09,23,21.30
2015,06,30,09,24,21.30
2015,06,30,09,25,21.30
2015,06,30,09,26,21.20
2015,06,30,09,27,21.20
2015,06,30,09,28,21.20
2015,06,30,09,29,21.10
2015,06,30,09,30,21.00
2015,06,30,09,31,20.90
2015,06,30,09,32,20.90
2015,06,30,09,33,20.90
2015,06,30,09,34,20.80
2015,06,30,09,35,20.70
2015,06,30,09,36,20.70
2015,06,30,09,37,20.60
2015,06,30,09,38,20.70
2015,06,30,09,39,20.80
2015,06,30,09,40,20.90
2015,06,30,09,41,20.80
2015,06,30,09,42,20.80
2015,06,30,09,43,20.70
2015,06,30,09,44,20.60
2015,06,30,09,45,20.50
2015,06,30,09,46,20.50
2015,06,30,09,47,20.50
2015,06,30,09,48,20.50
2015,06,30,09,49,20.70
2015,06,30,09,50,20.80
2015,06,30,09,51,21.00
2015,06,30,09,52,21.00
2015,06,30,09,53,21.00
2015,06,30,09,54,21.00
2015,06,30,09,55,21.10
2015,06,30,09,56,21.10
2015,06,30,09,57,21.20
2015,06,30,09,58,21.20
2015,06,30,09,59,21.20
2015,06,30,10,00,21.20
2015,06,30,10,01,21.30
2015,06,30,10,02,21.30
2015,06,30,10,03,21.40
2015,06,30,10,04,21.40
2015,06,30,10,05,21.30
2015,06,30,10,06,21.20
2015,06,30,10,07,21.10
2015,06,30,10,08,21.00
2015,06,30,10,09,21.00
2015,06,30,10,10,21.00
2015,06,30,10,11,21.10
2015,06,30,10,12,21.20
2015,06,30,10,13,21.30
2015,06,30,10,14,21.30
2015,06,30,10,15,21.40
2015,06,30,10,16,21.40
2015,06,30,10,17,21.40
2015,06,30,10,18,21.40
2015,06,30,10,19,21.40
2015,06,30,10,20,21.40
2015,06,30,10,21,21.40
2015,06,30,10,22,21.60
2015,06,30,10,23,21.80
2015,06,30,10,24,21.90
2015,06,30,10,25,22.00
2015,06,30,10,26,22.00
2015,06,30,10,27,22.00
2015,06,30,10,28,22.10
2015,06,30,10,29,22.10
2015,06,30,10,30,22.10
2015,06,30,10,31,22.20
2015,06,30,10,32,22.30
2015,06,30,10,33,22.40
2015,06,30,10,34,22.40
2015,06,30,10,35,22.50
2015,06,30,10,36,22.50
2015,06,30,10,37,22.60
2015,06,30,10,38,22.60
2015,06,30,10,39,22.70
2015,06,30,10,40,22.80
2015,06,30,10,41,22.80
2015,06,30,10,42,22.80
2015,06,30,10,43,22.60
2015,06,30,10,44,22.60
2015,06,30,10,45,22.70
2015,06,30,10,46,22.70
2015,06,30,10,47,22.60
2015,06,30,10,48,22.50
2015,06,30,10,49,22.40
2015,06,30,10,50,22.40
2015,06,30,10,51,22.50
2015,06,30,10,52,22.50
2015,06,30,10,53,22.60
2015,06,30,10,54,22.70
2015,06,30,10,55,22.80
2015,06,30,10,56,22.90
2015,06,30,10,57,22.90
2015,06,30,10,58,23.00
2015,06,30,10,59,23.00
2015,06,30,11,00,23.10
2015,06,30,11,01,23.10
2015,06,30,11,02,23.10
2015,06,30,11,03,23.00
2015,06,30,11,04,22.90
2015,06,30,11,05,22.80
2015,06,30,11,06,22.70
2015,06,30,11,07,22.70
2015,06,30,11,08,22.60
2015,06,30,11,09,22.60
2015,06,30,11,10,22.50
2015,06,30,11,11,22.50
2015,06,30,11,12,22.40
2015,06,30,11,13,22.40
2015,06,30,11,14,22.30
2015,06,30,11,15,22.30
2015,06,30,11,16,22.30
2015,06,30,11,17,22.30
2015,06,30,11,18,22.30
2015,06,30,11,19,22.30
2015,06,30,11,20,22.20
2015,06,30,11,21,22.20
2015,06,30,11,22,22.30
2015,06,30,11,23,22.40
2015,06,30,11,24,22.60
2015,06,30,11,25,22.70
2015,06,30,11,26,22.80
2015,06,30,11,27,22.80
2015,06,30,11,28,22.90
2015,06,30,11,29,22.90
2015,06,30,11,30,23.10
2015,06,30,11,31,23.10
2015,06,30,11,32,23.20
2015,06,30,11,33,23.10
2015,06,30,11,34,22.90
2015,06,30,11,35,22.90
2015,06,30,11,36,22.80
2015,06,30,11,37,22.90
2015,06,30,11,38,22.90
2015,06,30,11,39,23.10
2015,06,30,11,40,23.30
2015,06,30,11,41,23.40
2015,06,30,11,42,23.40
2015,06,30,11,43,23.40
2015,06,30,11,44,23.30
2015,06,30,11,45,23.30
2015,06,30,11,46,23.20
2015,06,30,11,47,23.20
2015,06,30,11,48,23.20
2015,06,30,11,49,23.30
2015,06,30,11,50,23.50
2015,06,30,11,51,23.70
2015,06,30,11,52,23.70
2015,06,30,11,53,23.90
2015,06,30,11,54,24.00
2015,06,30,11,55,24.00
2015,06,30,11,56,24.00
2015,06,30,11,57,24.00
2015,06,30,11,58,23.90
2015,06,30,11,59,23.90
2015,06,30,12,00,23.80
2015,06,30,12,01,23.60
2015,06,30,12,02,23.40
2015,06,30,12,03,23.40
2015,06,30,12,04,23.30
2015,06,30,12,05,23.20
2015,06,30,12,06,23.30
2015,06,30,12,07,23.30
2015,06,30,12,08,23.30
2015,06,30,12,09,23.30
2015,06,30,12,10,23.50
2015,06,30,12,11,23.60
2015,06,30,12,12,23.50
2015,06,30,12,13,23.40
2015,06,30,12,14,23.30
2015,06,30,12,15,23.30
2015,06,30,12,16,23.40
2015,06,30,12,17,23.60
2015,06,30,12,18,23.80
2015,06,30,12,19,23.80
2015,06,30,12,20,24.00
2015,06,30,12,21,24.00
2015,06,30,12,22,24.00
2015,06,30,12,23,24.10
2015,06,30,12,24,24.20
2015,06,30,12,25,24.20
2015,06,30,12,26,24.30
2015,06,30,12,27,24.30
2015,06,30,12,28,24.30
2015,06,30,12,29,24.40
2015,06,30,12,30,24.50
2015,06,30,12,31,24.60
2015,06,30,12,32,24.70
2015,06,30,12,33,24.70
2015,06,30,12,34,24.70
2015,06,30,12,35,24.70
2015,06,30,12,36,24.70
2015,06,30,12,37,24.70
2015,06,30,12,38,24.60
2015,06,30,12,39,24.50
2015,06,30,12,40,24.50
2015,06,30,12,41,24.40
2015,06,30,12,42,24.40
2015,06,30,12,43,24.30
2015,06,30,12,44,24.20
2015,06,30,12,45,24.30
2015,06,30,12,46,24.30
2015,06,30,12,47,24.40
2015,06,30,12,48,24.40
2015,06,30,12,49,24.30
2015,06,30,12,50,24.40
2015,06,30,12,51,24.40
2015,06,30,12,52,24.50
2015,06,30,12,53,24.40
2015,06,30,12,54,24.50
2015,06,30,12,55,24.50
2015,06,30,12,56,24.40
2015,06,30,12,57,24.30
2015,06,30,12,58,24.40
2015,06,30,12,59,24.50
2015,06,30,13,00,24.60
2015,06,30,13,01,24.70
2015,06,30,13,02,24.70
2015,06,30,13,03,24.70
2015,06,30,13,04,24.70
2015,06,30,13,05,24.60
2015,06,30,13,06,24.50
2015,06,30,13,07,24.40
2015,06,30,13,08,24.40
2015,06,30,13,09,24.50
2015,06,30,13,10,24.50
2015,06,30,13,11,24.50
2015,06,30,13,12,24.50
2015,06,30,13,13,24.60
2015,06,30,13,14,24.80
2015,06,30,13,15,24.80
2015,06,30,13,16,24.90
2015,06,30,13,17,24.80
2015,06,30,13,18,24.70
2015,06,30,13,19,24.70
2015,06,30,13,20,24.70
2015,06,30,13,21,24.70
2015,06,30,13,22,24.70
2015,06,30,13,23,24.80
2015,06,30,13,24,24.80
2015,06,30,13,25,24.80
2015,06,30,13,26,24.70
2015,06,30,13,27,24.70
2015,06,30,13,28,24.80
2015,06,30,13,29,24.90
2015,06,30,13,30,25.00
2015,06,30,13,31,25.10
2015,06,30,13,32,25.10
2015,06,30,13,33,25.00
2015,06,30,13,34,24.90
2015,06,30,13,35,24.90
2015,06,30,13,36,24.80
2015,06,30,13,37,24.70
2015,06,30,13,38,24.70
2015,06,30,13,39,24.80
2015,06,30,13,40,24.80
2015,06,30,13,41,24.90
2015,06,30,13,42,25.10
2015,06,30,13,43,25.30
2015,06,30,13,44,25.30
2015,06,30,13,45,25.30
2015,06,30,13,46,25.50
2015,06,30,13,47,25.70
2015,06,30,13,48,25.80
2015,06,30,13,49,25.90
2015,06,30,13,50,26.00
2015,06,30,13,51,26.00
2015,06,30,13,52,25.90
2015,06,30,13,53,25.80
2015,06,30,13,54,25.80
2015,06,30,13,55,25.80
2015,06,30,13,56,25.80
2015,06,30,13,57,25.80
2015,06,30,13,58,25.80
2015,06,30,13,59,25.70
2015,06,30,14,00,25.60
2015,06,30,14,01,25.50
2015,06,30,14,02,25.50
2015,06,30,14,03,25.60
2015,06,30,14,04,25.60
2015,06,30,14,05,25.60
2015,06,30,14,06,25.50
2015,06,30,14,07,25.40
2015,06,30,14,08,25.30
2015,06,30,14,09,25.50
2015,06,30,14,10,25.60
2015,06,30,14,11,25.60
2015,06,30,14,12,25.50
2015,06,30,14,13,25.30
2015,06,30,14,14,25.20
2015,06,30,14,15,25.20
2015,06,30,14,16,25.30
2015,06,30,14,17,25.40
2015,06,30,14,18,25.50
2015,06,30,14,19,25.60
2015,06,30,14,20,25.50
2015,06,30,14,21,25.50
2015,06,30,14,22,25.60
2015,06,30,14,23,25.50
2015,06,30,14,24,25.40
2015,06,30,14,25,25.40
2015,06,30,14,26,25.40
2015,06,30,14,27,25.40
2015,06,30,14,28,25.30
2015,06,30,14,29,25.20
2015,06,30,14,30,25.20
2015,06,30,14,31,25.20
2015,06,30,14,32,25.20
2015,06,30,14,33,25.30
2015,06,30,14,34,25.40
2015,06,30,14,35,25.50
2015,06,30,14,36,25.50
2015,06,30,14,37,25.60
2015,06,30,14,38,25.80
2015,06,30,14,39,25.80
2015,06,30,14,40,25.90
2015,06,30,14,41,25.90
2015,06,30,14,42,26.00
2015,06,30,14,43,26.00
2015,06,30,14,44,25.90
2015,06,30,14,45,25.90
2015,06,30,14,46,25.90
2015,06,30,14,47,25.90
2015,06,30,14,48,25.80
2015,06,30,14,49,25.60
2015,06,30,14,50,25.60
2015,06,30,14,51,25.50
2015,06,30,14,52,25.40
2015,06,30,14,53,25.30
2015,06,30,14,54,25.30
2015,06,30,14,55,25.20
2015,06,30,14,56,25.10
2015,06,30,14,57,25.10
2015,06,30,14,58,25.00
2015,06,30,14,59,24.90
2015,06,30,15,00,25.00
2015,06,30,15,01,25.00
2015,06,30,15,02,24.90
2015,06,30,15,03,24.90
2015,06,30,15,04,24.80
2015,06,30,15,05,24.70
2015,06,30,15,06,24.50
2015,06,30,15,07,24.50
2015,06,30,15,08,24.60
2015,06,30,15,09,24.70
2015,06,30,15,10,24.90
2015,06,30,15,11,25.10
2015,06,30,15,12,25.20
2015,06,30,15,13,25.30
2015,06,30,15,14,25.30
2015,06,30,15,15,25.40
2015,06,30,15,16,25.40
2015,06,30,15,17,25.40
2015,06,30,15,18,25.40
2015,06,30,15,19,25.40
2015,06,30,15,20,25.40
2015,06,30,15,21,25.40
2015,06,30,15,22,25.50
2015,06,30,15,23,25.60
2015,06,30,15,24,25.80
2015,06,30,15,25,25.80
2015,06,30,15,26,25.60
2015,06,30,15,27,25.40
2015,06,30,15,28,25.30
2015,06,30,15,29,25.30
2015,06,30,15,30,25.40
2015,06,30,15,31,25.40
2015,06,30,15,32,25.50
2015,06,30,15,33,25.50
2015,06,30,15,34,25.50
2015,06,30,15,35,25.40
2015,06,30,15,36,25.50
2015,06,30,15,37,25.40
2015,06,30,15,38,25.30
2015,06,30,15,39,25.20
2015,06,30,15,40,25.00
2015,06,30,15,41,24.90
2015,06,30,15,42,24.90
2015,06,30,15,43,25.10
2015,06,30,15,44,25.20
2015,06,30,15,45,25.20
2015,06,30,15,46,25.30
2015,06,30,15,47,25.40
2015,06,30,15,48,25.50
2015,06,30,15,49,25.60
2015,06,30,15,50,25.70
2015,06,30,15,51,25.70
2015,06,30,15,52,25.70
2015,06,30,15,53,25.70
2015,06,30,15,54,25.70
2015,06,30,15,55,25.70
2015,06,30,15,56,25.70
2015,06,30,15,57,25.60
2015,06,30,15,58,25.60
2015,06,30,15,59,25.70
2015,06,30,16,00,25.70
2015,06,30,16,01,25.60
2015,06,30,16,02,25.60
2015,06,30,16,03,25.60
2015,06,30,16,04,25.50
2015,06,30,16,05,25.60
2015,06,30,16,06,25.60
2015,06,30,16,07,25.70
2015,06,30,16,08,25.80
2015,06,30,16,09,25.90
2015,06,30,16,10,25.90
2015,06,30,16,11,26.00
2015,06,30,16,12,26.00
2015,06,30,16,13,25.90
2015,06,30,16,14,25.80
2015,06,30,16,15,25.70
2015,06,30,16,16,25.70
2015,06,30,16,17,25.70
2015,06,30,16,18,25.70
2015,06,30,16,19,25.80
2015,06,30,16,20,25.90
2015,06,30,16,21,25.90
2015,06,30,16,22,26.00
2015,06,30,16,23,26.10
2015,06,30,16,24,26.20
2015,06,30,16,25,26.30
2015,06,30,16,26,26.40
2015,06,30,16,27,26.40
2015,06,30,16,28,26.40
2015,06,30,16,29,26.30
2015,06,30,16,30,26.40
2015,06,30,16,31,26.30
2015,06,30,16,32,26.30
2015,06,30,16,33,26.20
2015,06,30,16,34,26.20
2015,06,30,16,35,26.20
2015,06,30,16,36,26.20
2015,06,30,16,37,26.20
2015,06,30,16,38,26.20
2015,06,30,16,39,26.20
2015,06,30,16,40,26.30
2015,06,30,16,41,26.40
2015,06,30,16,42,26.40
2015,06,30,16,43,26.40
2015,06,30,16,44,26.40
2015,06,30,16,45,26.50
2015,06,30,16,46,26.50
2015,06,30,16,47,26.50
2015,06,30,16,48,26.50
2015,06,30,16,49,26.60
2015,06,30,16,50,26.70
2015,06,30,16,51,26.80
2015,06,30,16,52,26.90
2015,06,30,16,53,27.00
2015,06,30,16,54,27.10
2015,06,30,16,55,27.00
2015,06,30,16,56,26.90
2015,06,30,16,57,26.90
2015,06,30,16,58,26.80
2015,06,30,16,59,26.80
2015,06,30,17,00,26.60
2015,06,30,17,01,26.60
2015,06,30,17,02,26.70
2015,06,30,17,03,26.70
2015,06,30,17,04,26.60
2015,06,30,17,05,26.60
2015,06,30,17,06,26.60
2015,06,30,17,07,26.60
2015,06,30,17,08,26.50
2015,06,30,17,09,26.40
2015,06,30,17,10,26.40
2015,06,30,17,11,26.30
2015,06,30,17,12,26.30
2015,06,30,17,13,26.40
2015,06,30,17,14,26.50
2015,06,30,17,15,26.40
2015,06,30,17,16,26.40
2015,06,30,17,17,26.40
2015,06,30,17,18,26.40
2015,06,30,17,19,26.30
2015,06,30,17,20,26.30
2015,06,30,17,21,26.20
2015,06,30,17,22,26.20
2015,06,30,17,23,26.20
2015,06,30,17,24,26.20
2015,06,30,17,25,26.10
2015,06,30,17,26,26.10
2015,06,30,17,27,26.00
2015,06,30,17,28,25.90
2015,06,30,17,29,25.90
2015,06,30,17,30,25.90
2015,06,30,17,31,25.90
2015,06,30,17,32,25.90
2015,06,30,17,33,26.10
2015,06,30,17,34,26.20
2015,06,30,17,35,26.30
2015,06,30,17,36,26.30
2015,06,30,17,37,26.30
2015,06,30,17,38,26.20
2015,06,30,17,39,26.10
2015,06,30,17,40,26.00
2015,06,30,17,41,25.90
2015,06,30,17,42,25.80
2015,06,30,17,43,25.80
2015,06,30,17,44,25.70
2015,06,30,17,45,25.60
2015,06,30,17,46,25.60
2015,06,30,17,47,25.60
2015,06,30,17,48,25.70
2015,06,30,17,49,25.70
2015,06,30,17,50,25.80
2015,06,30,17,51,25.80
2015,06,30,17,52,25.80
2015,06,30,17,53,25.80
2015,06,30,17,54,25.90
2015,06,30,17,55,25.90
2015,06,30,17,56,25.90
2015,06,30,17,57,25.80
2015,06,30,17,58,25.70
2015,06,30,17,59,25.60
2015,06,30,18,00,25.60
2015,06,30,18,01,25.50
2015,06,30,18,02,25.40
2015,06,30,18,03,25.40
2015,06,30,18,04,25.30
2015,06,30,18,05,25.30
2015,06,30,18,06,25.30
2015,06,30,18,07,25.30
2015,06,30,18,08,25.30
2015,06,30,18,09,25.30
2015,06,30,18,10,25.30
2015,06,30,18,11,25.30
2015,06,30,18,12,25.30
2015,06,30,18,13,25.30
2015,06,30,18,14,25.30
2015,06,30,18,15,25.30
2015,06,30,18,16,25.30
2015,06,30,18,17,25.30
2015,06,30,18,18,25.20
2015,06,30,18,19,25.20
2015,06,30,18,20,25.10
2015,06,30,18,21,25.10
2015,06,30,18,22,25.10
2015,06,30,18,23,25.00
2015,06,30,18,24,24.80
2015,06,30,18,25,24.70
2015,06,30,18,26,24.60
2015,06,30,18,27,24.60
2015,06,30,18,28,24.60
2015,06,30,18,29,24.60
2015,06,30,18,30,24.60
2015,06,30,18,31,24.60
2015,06,30,18,32,24.50
2015,06,30,18,33,24.50
2015,06,30,18,34,24.50
2015,06,30,18,35,24.60
2015,06,30,18,36,24.60
2015,06,30,18,37,24.60
2015,06,30,18,38,24.60
2015,06,30,18,39,24.60
2015,06,30,18,40,24.70
2015,06,30,18,41,24.70
2015,06,30,18,42,24.70
2015,06,30,18,43,24.70
2015,06,30,18,44,24.70
2015,06,30,18,45,24.70
2015,06,30,18,46,24.70
2015,06,30,18,47,24.70
2015,06,30,18,48,24.70
2015,06,30,18,49,24.70
2015,06,30,18,50,24.70
2015,06,30,18,51,24.70
2015,06,30,18,52,24.70
2015,06,30,18,53,24.60
2015,06,30,18,54,24.60
2015,06,30,18,55,24.60
2015,06,30,18,56,24.70
2015,06,30,18,57,24.70
2015,06,30,18,58,24.80
2015,06,30,18,59,24.80
2015,06,30,19,00,24.80
2015,06,30,19,01,24.90
2015,06,30,19,02,24.90
2015,06,30,19,03,25.00
2015,06,30,19,04,25.10
2015,06,30,19,05,25.10
2015,06,30,19,06,25.10
2015,06,30,19,07,25.00
2015,06,30,19,08,25.00
2015,06,30,19,09,24.90
2015,06,30,19,10,24.90
2015,06,30,19,11,24.90
2015,06,30,19,12,24.90
2015,06,30,19,13,24.80
2015,06,30,19,14,24.80
2015,06,30,19,15,24.80
2015,06,30,19,16,24.80
2015,06,30,19,17,24.80
2015,06,30,19,18,24.70
2015,06,30,19,19,24.70
2015,06,30,19,20,24.60
2015,06,30,19,21,24.60
2015,06,30,19,22,24.50
2015,06,30,19,23,24.50
2015,06,30,19,24,24.40
2015,06,30,19,25,24.40
2015,06,30,19,26,24.40
2015,06,30,19,27,24.40
2015,06,30,19,28,24.30
2015,06,30,19,29,24.30
2015,06,30,19,30,24.30
2015,06,30,19,31,24.20
2015,06,30,19,32,24.20
2015,06,30,19,33,24.20
2015,06,30,19,34,24.10
2015,06,30,19,35,24.10